User: anonymous   Login
Location: Lake Superior Provincial Park
(47.3335°N, 84.6162°W)
Time: 18:04:57
(UTC-04:00)
Language:

Cosmos 2333 Rocket - Orbit

View from above orbital plane
View from above orbital plane
View from above satellite
View from above satellite

Ground track
Ground track

The orbit data is extracted from the following two-line orbital elements,

1 24298U 96051B   14298.47286942 -.00000052  00000-0 -21317-5 0  5851
2 24298 070.8600 297.5875 0016116 187.7505 334.3702 14.12457974935462
Epoch (UTC): 25 October 2014 11:20:55
Eccentricity: 0.0016116
inclination: 70.8600°
perigee height: 839 km
apogee height: 862 km
right ascension of ascending node: 297.5875°
argument of perigee: 187.7505°
revolutions per day: 14.12457974
mean anomaly at epoch: 334.3702°
orbit number at epoch: 93546

The dashed part of the orbit path shows where the satellite is in the earth's shadow,  

DLR